Location: Unspecified
(52.4292°N, 19.3359°E)
Time: 09:58:23
(UTC+02:00)

Tiros 1 - Pass Details

Date: 18 May 2024
Orbit: 624 x 657 km, 48.4° (Epoch: 22 June)

Event Time Altitude Azimuth Distance (km) Brightness Sun altitude
Rises 15:40:00 0° 245° (WSW) 2,977 11.4 42.2°
Reaches altitude 10° 15:42:24 10° 240° (WSW) 2,066 10.9 41.9°
Maximum altitude 15:46:58 46° 167° (SSE) 879 8.5 41.3°
Drops below altitude 10° 15:51:31 10° 95° (E) 2,062 9.4 40.6°
Sets 15:53:55 0° 89° (E) 2,970 10.1 40.3°
